Location: Unspecified
(48.2082°N, 0.0000°E)
Time: 10:29:45
(UTC+00:00)

Altair - Pass Details

Date: 22 June 2019
Orbit: 1501 x 1683 km, 47.2° (Epoch: 16 August)

Event Time Altitude Azimuth Distance (km) Brightness Sun altitude
Rises 18:26:15 0° 203° (SSW) 4,670 10.1 13.4°
Reaches altitude 10° 18:29:41 10° 193° (SSW) 3,712 9.5 12.9°
Maximum altitude 18:37:35 32° 135° (SE) 2,475 8.3 11.7°
Drops below altitude 10° 18:45:44 10° 78° (ENE) 3,846 9.2 10.4°
Sets 18:49:20 0° 69° (ENE) 4,862 9.7 9.9°
